Location: Toronto
(43.6672°N, 79.4170°W)
Time: 05:18:08
(UTC-04:00)

ISS - All Passes

Search period start: 23 October 2014 00:00
Search period end: 02 November 2014 00:00
Orbit: 413 x 416 km, 51.6° (Epoch: 22 October)

Date Brightness Start Highest point End Pass type
(mag) Time Alt. Az. Time Alt. Az. Time Alt. Az.
23 Oct - 14:00:03 10° SW 14:03:16 49° SE 14:06:31 10° ENE daylight
23 Oct - 15:37:01 10° W 15:40:05 32° NNW 15:43:09 10° NE daylight
23 Oct - 17:14:53 10° NW 17:17:28 20° N 17:20:03 10° NE daylight
23 Oct - 18:51:45 10° NW 18:54:51 34° NNE 18:57:56 10° E visible
23 Oct - 20:28:25 10° WNW 20:31:37 45° SW 20:34:49 10° SE visible
24 Oct - 13:11:20 10° SSW 13:14:15 28° SE 13:17:10 10° ENE daylight
24 Oct - 14:47:37 10° W 14:50:50 44° NNW 14:54:04 10° NE daylight
24 Oct - 16:25:30 10° WNW 16:28:07 21° N 16:30:44 10° NE daylight
24 Oct - 18:02:39 10° NW 18:05:34 27° NNE 18:08:28 10° ENE daylight
24 Oct - 19:39:11 10° WNW 19:42:32 78° SW 19:45:52 10° SE visible
24 Oct - 21:18:08 10° WSW 21:18:41 10° SW 21:19:15 10° SW visible
25 Oct - 12:23:00 10° S 12:25:15 17° SE 12:27:30 10° E daylight
25 Oct - 13:58:17 10° WSW 14:01:36 68° NNW 14:04:56 10° NE daylight
25 Oct - 15:36:00 10° WNW 15:38:44 23° N 15:41:29 10° NE daylight
25 Oct - 17:13:29 10° NW 17:16:12 23° N 17:18:56 10° ENE daylight
25 Oct - 18:50:01 10° NW 18:53:21 65° NNE 18:56:40 10° ESE visible
25 Oct - 20:27:24 10° W 20:29:44 18° SW 20:32:04 10° S visible
26 Oct - 13:09:05 10° SW 13:12:24 74° SE 13:15:44 10° ENE daylight
26 Oct - 14:46:26 10° WNW 14:49:21 27° NNW 14:52:16 10° NE daylight
26 Oct - 16:24:11 10° NW 16:26:47 21° N 16:29:23 10° NE daylight
26 Oct - 18:00:51 10° NW 18:04:04 43° NNE 18:07:17 10° E daylight
26 Oct - 19:37:43 10° WNW 19:40:41 30° SW 19:43:38 10° SSE visible
27 Oct - 12:20:03 10° SSW 12:23:13 42° SE 12:26:24 10° ENE daylight
27 Oct - 13:56:52 10° W 13:59:57 35° NNW 14:03:04 10° NE daylight
27 Oct - 15:34:45 10° NW 15:37:19 20° N 15:39:53 10° NE daylight
27 Oct - 17:11:40 10° NW 17:14:42 31° NNE 17:17:44 10° E daylight
27 Oct - 18:48:16 10° WNW 18:51:31 51° SW 18:54:46 10° SE visible
28 Oct - 11:31:16 10° SSW 11:34:03 25° SE 11:36:51 10° E daylight
28 Oct - 13:07:20 10° WSW 13:10:34 49° NNW 13:13:50 10° NE daylight
28 Oct - 14:45:11 10° WNW 14:47:49 21° N 14:50:27 10° NE daylight
28 Oct - 16:22:24 10° NW 16:25:15 25° NNE 16:28:06 10° ENE daylight
28 Oct - 17:58:55 10° WNW 18:02:16 88° SW 18:05:36 10° SE daylight
28 Oct - 19:37:08 10° WSW 19:38:28 12° SW 19:39:48 10° SSW visible
29 Oct - 10:42:58 10° SSE 10:44:55 15° SE 10:46:53 10° E daylight
29 Oct - 12:17:53 10° WSW 12:21:12 77° NNW 12:24:33 10° NE daylight
29 Oct - 13:55:31 10° WNW 13:58:17 24° NNW 14:01:04 10° NE daylight
29 Oct - 15:33:03 10° NW 15:35:44 22° N 15:38:25 10° ENE daylight
29 Oct - 17:09:36 10° NW 17:12:55 58° NNE 17:16:12 10° ESE daylight
29 Oct - 18:46:48 10° W 18:49:20 20° SW 18:51:53 10° S visible
30 Oct - 11:28:34 10° SW 11:31:52 64° SE 11:35:10 10° ENE daylight
30 Oct - 13:05:48 10° W 13:08:45 29° NNW 13:11:43 10° NE daylight
30 Oct - 14:43:35 10° NW 14:46:09 20° N 14:48:44 10° NE daylight
30 Oct - 16:20:18 10° NW 16:23:28 39° NNE 16:26:37 10° E daylight
30 Oct - 17:57:03 10° WNW 18:00:07 34° SW 18:03:10 10° SSE daylight
31 Oct - 10:39:27 10° SSW 10:42:32 36° SE 10:45:38 10° ENE daylight
31 Oct - 12:16:05 10° W 12:19:13 38° NNW 12:22:21 10° NE daylight
31 Oct - 13:53:58 10° NW 13:56:32 20° N 13:59:06 10° NE daylight
31 Oct - 15:30:57 10° NW 15:33:56 29° NNE 15:36:54 10° E daylight
31 Oct - 17:07:30 10° WNW 17:10:47 60° SW 17:14:04 10° SE daylight
01 Nov - 09:50:38 10° S 09:53:14 22° SE 09:55:52 10° E daylight
01 Nov - 11:26:25 10° WSW 11:29:41 55° NNW 11:32:59 10° NE daylight
01 Nov - 13:04:13 10° WNW 13:06:52 22° N 13:09:32 10° NE daylight
01 Nov - 14:41:31 10° NW 14:44:19 24° NNE 14:47:06 10° ENE daylight
01 Nov - 16:18:01 10° WNW 16:21:22 81° NNE 16:24:41 10° ESE daylight
01 Nov - 17:55:49 10° W 17:57:37 14° SW 17:59:26 10° SSW daylight
